Location: Lanoux
(43.1180°N, 1.4255°E)
Time: 14:34:59
(UTC+00:00)

Meteor 2-10 - Pass Details

Date: 20 March 2026
Orbit: 736 x 866 km, 81.2° (Epoch: 18 April)

Event Time Altitude Azimuth Distance (km) Brightness Sun altitude
Rises 19:51:44 0° 242° (WSW) 3,259 7.9 -19.6°
Reaches altitude 10° 19:55:36 10° 271° (W) 2,307 7.5 -20.3°
Maximum altitude 19:57:49 13° 297° (WNW) 2,112 7.4 -20.7°
Drops below altitude 10° 20:00:02 10° 323° (NW) 2,285 7.3 -21.1°
Sets 20:03:50 0° 352° (N) 3,195 7.6 -21.7°
